Powrót do katalogu

COSMOS 2499 DEB

AktywnyPO
NORAD 49932·DEBRIS·🇷🇺 Russia

Wystrzelony May 23, 2014 z Plesetsk Cosmodrome

Loading…

Następne Przeloty (najbliższe 24 godziny)

TLE

Starzejące sięSource: Space-Track

Epoka: Sep 10, 2026, 02:40 UTC

1 49932U 14028P   26253.11135214  .00008071  00000-0  16320-1 0  9997
2 49932  82.5525 179.2936 0387363  41.7509 321.2486 13.08877841146373

Śledź COSMOS 2499 DEB w czasie rzeczywistym z AllMySat

Download on the App Store